This demonstration page uses our WeatherBlox Daily Observations layout. Learn more.

Left ArrowRight Arrow

Hourly Observations for September 28, 2018

Temp ( °F °C ) Dew Point ( °F °C ) Humidity (%) Winds ( mph kmh ) Pressure ( in mb ) Visibility ( mi km ) Precip ( " mm )
12:53 am 00:53 Clear 66 18.9 61 16.1 84 84 SE 14 22 29.89 1012 10 16 0.00 0.00
1:53 am 01:53 Clear 65 18.3 61 16.1 87 87 SE 12 19 29.89 1012 10 16 0.00 0.00
2:53 am 02:53 Clear 64 17.8 61 16.1 90 90 SE 9 15 29.88 1012 10 16 0.00 0.00
3:53 am 03:53 Clear 63 17.2 61 16.1 93 93 SE 10 17 29.87 1011 10 16 0.00 0.00
4:53 am 04:53 Clear 62 16.7 61 16.1 96 96 SE 9 15 29.87 1012 10 16 0.00 0.00
5:53 am 05:53 Clear 62 16.7 61 16.1 96 96 SE 7 11 29.88 1012 10 16 0.00 0.00
6:53 am 06:53 Clear 61 16.1 61 16.1 100 100 SE 6 9 29.89 1012 10 16 0.00 0.00
7:53 am 07:53 Sunny 61 16.1 61 16.1 100 100 SE 7 11 29.91 1013 10 16 0.00 0.00
8:28 am 08:28 Partly Cloudy 62 16.7 62 16.7 100 100 SE 8 13 29.91 1013 7 11 0.00 0.00
8:35 am 08:35 Mostly Cloudy with Mist and Fog 62 16.7 62 16.7 100 100 SE 7 11 29.91 1013 3 4 0.00 0.00
8:53 am 08:53 Cloudy with Mist and Fog 63 17.2 62 16.7 97 97 SE 7 11 29.92 1013 4 6 0.00 0.00
9:34 am 09:34 Partly Cloudy 66 18.9 64 17.8 93 93 SE 8 13 29.94 1014 10 16 0.00 0.00
9:53 am 09:53 Sunny 68 20 64 17.8 87 87 SE 8 13 29.92 1013 10 16 0.00 0.00
10:53 am 10:53 Sunny 74 23.3 64 17.8 71 71 SE 6 9 29.92 1013 10 16 0.00 0.00
11:53 am 11:53 Sunny 79 26.1 62 16.7 56 56 SSE 8 13 29.91 1013 10 16 0.00 0.00
12:53 pm 12:53 Sunny 84 28.9 60 15.6 44 44 S 7 11 29.90 1013 10 16 0.00 0.00
1:53 pm 13:53 Sunny 87 30.6 57 13.9 36 36 S 8 13 29.87 1012 10 16 0.00 0.00
2:53 pm 14:53 Sunny 89 31.7 57 13.9 34 34 S 13 20 29.84 1011 10 16 0.00 0.00
3:53 pm 15:53 Sunny 90 32.2 54 12.2 29 29 SSE 12 19 29.83 1010 10 16 0.00 0.00
4:53 pm 16:53 Sunny 90 32.2 54 12.2 29 29 SSE 8 13 29.82 1010 10 16 0.00 0.00
5:53 pm 17:53 Sunny 90 32.2 56 13.3 32 32 SE 14 22 29.82 1010 10 16 0.00 0.00
6:53 pm 18:53 Sunny 86 30 62 16.7 45 45 SE 17 28 29.83 1010 10 16 0.00 0.00
7:53 pm 19:53 Clear 81 27.2 58 14.4 45 45 SE 14 22 29.86 1011 10 16 0.00 0.00
8:53 pm 20:53 Clear 77 25 60 15.6 56 56 SE 13 20 29.89 1012 10 16 0.00 0.00
9:53 pm 21:53 Clear 74 23.3 63 17.2 69 69 SE 14 22 29.91 1013 10 16 0.00 0.00
10:53 pm 22:53 undefined 72 22.2 64 17.8 76 76 SE 15 24 29.91 1013 N/A 0.00 0.00
11:53 pm 23:53 Clear 69 20.6 64 17.8 84 84 SE 15 24 29.92 1013 10 16 0.00 0.00

Powered by AerisWeather